Charlottesville, VA

2:23 PM EST on November 14, 2019 (GMT -0500)
Charlottesville-Albemarle

Weather History for KCHO - August, 2019

Change the Weather History Date:

Saturday, August 24, 2019

  Actual Average Record
Temperature  
Mean Temperature 70 °F 73 °F  
Max Temperature 79 °F 84 °F 101 °F (1914)
Min Temperature 60 °F 62 °F 52 °F (1994)
Degree Days  
Heating Degree Days 0 0  
Month to date heating degree days 0 0  
Since 1 June heating degree days 0 12  
Since 1 July heating degree days 0 1  
Cooling Degree Days 4 8  
Month to date cooling degree days 336 226  
Year to date cooling degree days 1404 856  
Since 1 June cooling degree days 1118 770  
Growing Degree Days 20 (Base 50)    
Moisture  
Dew Point 56 °F    
Average Humidity 61    
Maximum Humidity 87    
Minimum Humidity 39    
Precipitation  
Precipitation 0.00 in 0.09 in 0.74 in (1983)
Month to date precipitation 2.65 2.96  
Year to date precipitation 27.95 27.48  
Sea Level Pressure  
Sea Level Pressure 30.16 in    
Wind  
Wind Speed 5 mph ()    
Max Wind Speed 14 mph    
Max Gust Speed 18 mph    
Visibility 10.0 miles    
Events      
T = Trace of Precipitation, MM = Missing Value Source: Averaged Metar Reports

Daily Weather History Graph

Daily Weather History Graph

Search for Another Location

Airport or City:

Astronomy

Aug. 24, 2019 Rise Set
Actual Time 6:36 AM EDT 7:55 PM EDT
Civil Twilight 6:08 AM EDT 8:22 PM EDT
Nautical Twilight 5:35 AM EDT 8:55 PM EDT
Astronomical Twilight 5:01 AM EDT 9:29 PM EDT
Moon 12:30 AM EDT (8/24) 3:06 PM EDT (8/24)
Length of Visible Light 14h 13m
Length of Day
13h 19m
Last Quarter, 39% of the Moon is Illuminated
Aug 24
Last Quarter
Aug 30
New
Sep 5
First Quarter
Sep 14
Full
Sep 21
Last Quarter

Hourly Weather History & Observations

Time (EDT) Temp. Dew Point Humidity Pressure Visibility Wind Dir Wind Speed Gust Speed Precip Events Conditions
4:53 AM 66.0 °F 62.1 °F 87% 30.12 in 10.0 mi Variable 3.5 mph - N/A   Overcast
5:53 AM 66.0 °F 62.1 °F 87% 30.12 in 10.0 mi Calm Calm - N/A   Overcast
6:53 AM 66.0 °F 61.0 °F 84% 30.15 in 10.0 mi North 3.5 mph - N/A   Overcast
7:53 AM 66.9 °F 61.0 °F 81% 30.17 in 10.0 mi NNE 5.8 mph - N/A   Overcast
8:53 AM 69.1 °F 57.0 °F 65% 30.18 in 10.0 mi NNE 8.1 mph - N/A   Scattered Clouds
9:53 AM 72.0 °F 55.0 °F 55% 30.18 in 10.0 mi NE 10.4 mph - N/A   Clear
10:53 AM 73.9 °F 55.9 °F 53% 30.18 in 10.0 mi NE 11.5 mph - N/A   Clear
11:53 AM 75.0 °F 53.1 °F 46% 30.18 in 10.0 mi ENE 12.7 mph - N/A   Scattered Clouds
12:53 PM 75.9 °F 55.0 °F 48% 30.17 in 10.0 mi NE 11.5 mph - N/A   Mostly Cloudy
1:53 PM 77.0 °F 54.0 °F 45% 30.17 in 10.0 mi ENE 10.4 mph - N/A   Overcast
2:53 PM 77.0 °F 53.1 °F 43% 30.16 in 10.0 mi NNE 9.2 mph - N/A   Overcast
3:53 PM 77.0 °F 53.1 °F 43% 30.15 in 10.0 mi NE 8.1 mph - N/A   Overcast
4:53 PM 78.1 °F 52.0 °F 40% 30.14 in 10.0 mi NE 9.2 mph - N/A   Overcast
5:53 PM 77.0 °F 52.0 °F 42% 30.14 in 10.0 mi NE 9.2 mph - N/A   Scattered Clouds
6:53 PM 73.9 °F 54.0 °F 50% 30.14 in 10.0 mi Calm Calm - N/A   Scattered Clouds
7:53 PM 68.0 °F 55.9 °F 65% 30.16 in 10.0 mi North 3.5 mph - N/A   Clear
8:53 PM 66.0 °F 55.9 °F 70% 30.18 in 10.0 mi NNE 3.5 mph - N/A   Clear
9:53 PM 64.9 °F 55.0 °F 70% 30.19 in 10.0 mi NNE 3.5 mph - N/A   Partly Cloudy
10:53 PM 63.0 °F 55.9 °F 78% 30.20 in 10.0 mi North 3.5 mph - N/A   Clear
11:53 PM 63.0 °F 54.0 °F 72% 30.20 in 10.0 mi North 3.5 mph - N/A   Clear